"Sample Date","Sample Time","Sample Value","Units","Flow Rate","Sample Interval","Number Channels","Micron Size 0","Counts/Channel 0","Micron Size 1","Counts/Channel 1","Micron Size 2","Counts/Channel 2","Micron Size 3","Counts/Channel 3","Micron Size 4","Counts/Channel 4","Micron Size 5","Counts/Channel 5","Micron Size 6","Counts/Channel 6","Micron Size 7","Counts/Channel 7","Micron Size 8","Counts/Channel 8","Micron Size 9","Counts/Channel 9","Micron Size 10","Counts/Channel 10","Micron Size 11","Counts/Channel 11","Micron Size 12","Counts/Channel 12","Micron Size 13","Counts/Channel 13","Micron Size 14","Counts/Channel 14","Micron Size 15","Counts/Channel 15","Micron Size 16","Counts/Channel 16","Micron Size 17","Counts/Channel 17","Micron Size 18","Counts/Channel 18","Micron Size 19","Counts/Channel 19","Micron Size 20","Counts/Channel 20","Micron Size 21","Counts/Channel 21","Micron Size 22","Counts/Channel 22","Micron Size 23","Counts/Channel 23","Micron Size 24","Counts/Channel 24","Micron Size 25","Counts/Channel 25","Micron Size 26","Counts/Channel 26","Micron Size 27","Counts/Channel 27","Micron Size 28","Counts/Channel 28","Micron Size 29","Counts/Channel 29","Micron Size 30","Counts/Channel 30","Micron Size 31","Counts/Channel 31"
"03/08/08","17:00:02",17384.000,"cc",28316.445,6.00,6,0.100,13522.000,0.200,3377.000,0.300,338.000,0.500,134.000,1.000,13.000,5.000,0
"03/08/08","17:00:08",17356.000,"cc",28375.272,6.00,6,0.100,13626.000,0.200,3273.000,0.300,337.000,0.500,111.000,1.000,9.000,5.000,0
"03/08/08","17:00:14",17231.000,"cc",28339.283,6.00,6,0.100,13517.000,0.200,3264.000,0.300,312.000,0.500,128.000,1.000,10.000,5.000,0
"03/08/08","17:00:20",17279.000,"cc",28316.795,6.00,6,0.100,13658.000,0.200,3232.000,0.300,292.000,0.500,90.000,1.000,7.000,5.000,0
"03/08/08","17:00:26",17409.000,"cc",28332.045,6.00,6,0.100,13655.000,0.200,3344.000,0.300,279.000,0.500,124.000,1.000,7.000,5.000,0
"03/08/08","17:00:32",17375.000,"cc",28306.482,6.00,6,0.100,13769.000,0.200,3269.000,0.300,258.000,0.500,73.000,1.000,6.000,5.000,0
"03/08/08","17:00:38",17531.000,"cc",28290.727,6.00,6,0.100,13777.000,0.200,3288.000,0.300,352.000,0.500,105.000,1.000,9.000,5.000,0
"03/08/08","17:00:44",17188.000,"cc",28358.240,6.00,6,0.100,13634.000,0.200,3193.000,0.300,293.000,0.500,65.000,1.000,3.000,5.000,0
"03/08/08","17:00:50",17553.000,"cc",28291.092,6.00,6,0.100,13800.000,0.200,3284.000,0.300,347.000,0.500,112.000,1.000,10.000,5.000,0
"03/08/08","17:00:56",17504.000,"cc",28342.709,6.00,6,0.100,13865.000,0.200,3229.000,0.300,326.000,0.500,77.000,1.000,7.000,5.000,0
"03/08/08","17:01:02",17413.000,"cc",28333.531,6.00,6,0.100,13624.000,0.200,3333.000,0.300,327.000,0.500,121.000,1.000,8.000,5.000,0
"03/08/08","17:01:08",17242.000,"cc",28326.484,6.00,6,0.100,13594.000,0.200,3322.000,0.300,249.000,0.500,72.000,1.000,5.000,5.000,0
"03/08/08","17:01:14",17246.000,"cc",28266.176,6.00,6,0.100,13592.000,0.200,3256.000,0.300,297.000,0.500,87.000,1.000,14.000,5.000,0
"03/08/08","17:01:20",17314.000,"cc",28309.881,6.00,6,0.100,13596.000,0.200,3250.000,0.300,328.000,0.500,128.000,1.000,12.000,5.000,0
"03/08/08","17:01:26",17320.000,"cc",28372.447,6.00,6,0.100,13532.000,0.200,3403.000,0.300,295.000,0.500,87.000,1.000,3.000,5.000,0
"03/08/08","17:01:32",17368.000,"cc",28308.873,6.00,6,0.100,13565.000,0.200,3354.000,0.300,327.000,0.500,111.000,1.000,11.000,5.000,0
"03/08/08","17:01:38",17151.000,"cc",28352.232,6.00,6,0.100,13546.000,0.200,3216.000,0.300,310.000,0.500,75.000,1.000,4.000,5.000,0
"03/08/08","17:01:44",17182.000,"cc",28274.967,6.00,6,0.100,13570.000,0.200,3276.000,0.300,268.000,0.500,63.000,1.000,5.000,5.000,0
"03/08/08","17:01:50",17380.000,"cc",28226.627,6.00,6,0.100,13788.000,0.200,3250.000,0.300,254.000,0.500,80.000,1.000,8.000,5.000,0
"03/08/08","17:01:56",17371.000,"cc",28319.098,6.00,6,0.100,13715.000,0.200,3315.000,0.300,255.000,0.500,75.000,1.000,11.000,5.000,0
"03/08/08","17:02:02",17515.000,"cc",28399.209,6.00,6,0.100,13870.000,0.200,3267.000,0.300,290.000,0.500,78.000,1.000,10.000,5.000,0
"03/08/08","17:02:08",17329.000,"cc",28319.447,6.00,6,0.100,13664.000,0.200,3299.000,0.300,276.000,0.500,83.000,1.000,7.000,5.000,0
"03/08/08","17:02:14",17243.000,"cc",28320.938,6.00,6,0.100,13687.000,0.200,3217.000,0.300,271.000,0.500,64.000,1.000,4.000,5.000,0
"03/08/08","17:02:20",17314.000,"cc",28341.781,6.00,6,0.100,13748.000,0.200,3290.000,0.300,234.000,0.500,38.000,1.000,4.000,5.000,0
"03/08/08","17:02:26",17140.000,"cc",28274.473,6.00,6,0.100,13457.000,0.200,3277.000,0.300,316.000,0.500,87.000,1.000,3.000,5.000,0
"03/08/08","17:02:32",17200.000,"cc",28276.842,6.00,6,0.100,13699.000,0.200,3183.000,0.300,250.000,0.500,67.000,1.000,1.000,5.000,0
"03/08/08","17:02:38",17258.000,"cc",28278.525,6.00,6,0.100,13635.000,0.200,3262.000,0.300,280.000,0.500,78.000,1.000,3.000,5.000,0
"03/08/08","17:02:44",17264.000,"cc",28283.305,6.00,6,0.100,13522.000,0.200,3365.000,0.300,296.000,0.500,78.000,1.000,3.000,5.000,0
"03/08/08","17:02:50",17468.000,"cc",28394.381,6.00,6,0.100,13703.000,0.200,3394.000,0.300,265.000,0.500,100.000,1.000,6.000,5.000,0
"03/08/08","17:02:56",17094.000,"cc",28312.938,6.00,6,0.100,13480.000,0.200,3300.000,0.300,250.000,0.500,60.000,1.000,4.000,5.000,0
"03/08/08","17:03:02",17192.000,"cc",28283.170,6.00,6,0.100,13717.000,0.200,3155.000,0.300,253.000,0.500,61.000,1.000,6.000,5.000,0
"03/08/08","17:03:08",17135.000,"cc",28311.363,6.00,6,0.100,13537.000,0.200,3241.000,0.300,283.000,0.500,70.000,1.000,4.000,5.000,0
"03/08/08","17:03:14",17042.000,"cc",28343.027,6.00,6,0.100,13330.000,0.200,3288.000,0.300,317.000,0.500,97.000,1.000,10.000,5.000,0
"03/08/08","17:03:20",17061.000,"cc",28322.752,6.00,6,0.100,13534.000,0.200,3176.000,0.300,270.000,0.500,78.000,1.000,3.000,5.000,0
"03/08/08","17:03:26",17055.000,"cc",28259.490,6.00,6,0.100,13445.000,0.200,3300.000,0.300,248.000,0.500,56.000,1.000,6.000,5.000,0
"03/08/08","17:03:32",17329.000,"cc",28304.977,6.00,6,0.100,13592.000,0.200,3425.000,0.300,244.000,0.500,63.000,1.000,5.000,5.000,0
"03/08/08","17:03:38",17035.000,"cc",28429.625,6.00,6,0.100,13481.000,0.200,3237.000,0.300,256.000,0.500,60.000,1.000,1.000,5.000,0
"03/08/08","17:03:44",17193.000,"cc",28278.461,6.00,6,0.100,13679.000,0.200,3187.000,0.300,273.000,0.500,51.000,1.000,3.000,5.000,0
"03/08/08","17:03:50",17227.000,"cc",28280.037,6.00,6,0.100,13598.000,0.200,3317.000,0.300,240.000,0.500,69.000,1.000,3.000,5.000,0
"03/08/08","17:03:56",17009.000,"cc",28339.301,6.00,6,0.100,13643.000,0.200,3142.000,0.300,188.000,0.500,36.000,1.000,0,5.000,0
"03/08/08","17:04:02",17102.000,"cc",28312.701,6.00,6,0.100,13485.000,0.200,3273.000,0.300,279.000,0.500,62.000,1.000,3.000,5.000,0
"03/08/08","17:04:08",16965.000,"cc",28296.768,6.00,6,0.100,13537.000,0.200,3177.000,0.300,211.000,0.500,36.000,1.000,4.000,5.000,0
"03/08/08","17:04:14",16838.000,"cc",28359.686,6.00,6,0.100,13334.000,0.200,3198.000,0.300,232.000,0.500,72.000,1.000,2.000,5.000,0
"03/08/08","17:04:20",16860.000,"cc",28334.361,6.00,6,0.100,13487.000,0.200,3149.000,0.300,186.000,0.500,37.000,1.000,1.000,5.000,0
"03/08/08","17:04:26",16798.000,"cc",28327.361,6.00,6,0.100,13456.000,0.200,3112.000,0.300,179.000,0.500,49.000,1.000,2.000,5.000,0
"03/08/08","17:04:32",17001.000,"cc",28265.748,6.00,6,0.100,13581.000,0.200,3140.000,0.300,227.000,0.500,50.000,1.000,3.000,5.000,0
"03/08/08","17:04:38",16888.000,"cc",28384.166,6.00,6,0.100,13569.000,0.200,3110.000,0.300,181.000,0.500,28.000,1.000,0,5.000,0
"03/08/08","17:04:44",17046.000,"cc",28396.131,6.00,6,0.100,13573.000,0.200,3204.000,0.300,224.000,0.500,42.000,1.000,3.000,5.000,0
"03/08/08","17:04:50",16433.000,"cc",28243.119,6.00,6,0.100,13214.000,0.200,2999.000,0.300,188.000,0.500,31.000,1.000,1.000,5.000,0
"03/08/08","17:04:56",16614.000,"cc",28325.184,6.00,6,0.100,13344.000,0.200,3047.000,0.300,190.000,0.500,32.000,1.000,1.000,5.000,0
"03/08/08","17:05:02",17060.000,"cc",28327.113,6.00,6,0.100,13637.000,0.200,3177.000,0.300,209.000,0.500,34.000,1.000,3.000,5.000,0
"03/08/08","17:05:08",16772.000,"cc",28346.676,6.00,6,0.100,13460.000,0.200,3056.000,0.300,215.000,0.500,40.000,1.000,1.000,5.000,0
"03/08/08","17:05:14",16928.000,"cc",28285.219,6.00,6,0.100,13412.000,0.200,3268.000,0.300,202.000,0.500,43.000,1.000,3.000,5.000,0
"03/08/08","17:05:20",16738.000,"cc",28261.238,6.00,6,0.100,13430.000,0.200,3086.000,0.300,185.000,0.500,37.000,1.000,0,5.000,0
"03/08/08","17:05:26",16805.000,"cc",28345.152,6.00,6,0.100,13337.000,0.200,3238.000,0.300,206.000,0.500,24.000,1.000,0,5.000,0
"03/08/08","17:05:32",17176.000,"cc",28311.572,6.00,6,0.100,13722.000,0.200,3221.000,0.300,204.000,0.500,29.000,1.000,0,5.000,0
"03/08/08","17:05:38",16906.000,"cc",28396.094,6.00,6,0.100,13547.000,0.200,3172.000,0.300,169.000,0.500,18.000,1.000,0,5.000,0
"03/08/08","17:05:44",16721.000,"cc",28303.621,6.00,6,0.100,13489.000,0.200,3017.000,0.300,179.000,0.500,34.000,1.000,2.000,5.000,0
"03/08/08","17:05:50",16861.000,"cc",28329.522,6.00,6,0.100,13509.000,0.200,3152.000,0.300,171.000,0.500,27.000,1.000,2.000,5.000,0
"03/08/08","17:05:56",16814.000,"cc",28221.695,6.00,6,0.100,13473.000,0.200,3094.000,0.300,207.000,0.500,40.000,1.000,0,5.000,0
"03/08/08","17:06:02",16811.000,"cc",28324.613,6.00,6,0.100,13326.000,0.200,3213.000,0.300,233.000,0.500,39.000,1.000,0,5.000,0
"03/08/08","17:06:08",16967.000,"cc",28353.432,6.00,6,0.100,13463.000,0.200,3270.000,0.300,205.000,0.500,26.000,1.000,3.000,5.000,0
"03/08/08","17:06:14",16677.000,"cc",28272.967,6.00,6,0.100,13315.000,0.200,3124.000,0.300,204.000,0.500,33.000,1.000,1.000,5.000,0
"03/08/08","17:06:20",17026.000,"cc",28334.682,6.00,6,0.100,13557.000,0.200,3216.000,0.300,200.000,0.500,51.000,1.000,2.000,5.000,0
"03/08/08","17:06:26",16864.000,"cc",28348.311,6.00,6,0.100,13593.000,0.200,3062.000,0.300,179.000,0.500,30.000,1.000,0,5.000,0
"03/08/08","17:06:32",17079.000,"cc",28311.834,6.00,6,0.100,13640.000,0.200,3221.000,0.300,188.000,0.500,29.000,1.000,1.000,5.000,0
"03/08/08","17:06:38",17080.000,"cc",28326.129,6.00,6,0.100,13673.000,0.200,3196.000,0.300,187.000,0.500,22.000,1.000,2.000,5.000,0
"03/08/08","17:06:44",16983.000,"cc",28264.457,6.00,6,0.100,13682.000,0.200,3086.000,0.300,189.000,0.500,25.000,1.000,1.000,5.000,0
"03/08/08","17:06:50",17225.000,"cc",28311.982,6.00,6,0.100,13816.000,0.200,3201.000,0.300,173.000,0.500,32.000,1.000,3.000,5.000,0
"03/08/08","17:06:56",16722.000,"cc",28329.051,6.00,6,0.100,13375.000,0.200,3157.000,0.300,158.000,0.500,32.000,1.000,0,5.000,0
"03/08/08","17:07:02",16724.000,"cc",28336.484,6.00,6,0.100,13464.000,0.200,3051.000,0.300,179.000,0.500,28.000,1.000,2.000,5.000,0
"03/08/08","17:07:08",16882.000,"cc",28333.131,6.00,6,0.100,13389.000,0.200,3267.000,0.300,196.000,0.500,28.000,1.000,2.000,5.000,0
"03/08/08","17:07:14",16937.000,"cc",28337.352,6.00,6,0.100,13615.000,0.200,3133.000,0.300,154.000,0.500,34.000,1.000,1.000,5.000,0
"03/08/08","17:07:20",16816.000,"cc",28225.924,6.00,6,0.100,13388.000,0.200,3213.000,0.300,191.000,0.500,21.000,1.000,3.000,5.000,0
"03/08/08","17:07:26",16859.000,"cc",28278.514,6.00,6,0.100,13413.000,0.200,3233.000,0.300,183.000,0.500,30.000,1.000,0,5.000,0
"03/08/08","17:07:32",16711.000,"cc",28405.816,6.00,6,0.100,13496.000,0.200,3032.000,0.300,157.000,0.500,22.000,1.000,4.000,5.000,0
"03/08/08","17:07:38",16715.000,"cc",28312.816,6.00,6,0.100,13472.000,0.200,3064.000,0.300,142.000,0.500,36.000,1.000,1.000,5.000,0
"03/08/08","17:07:44",16786.000,"cc",28297.154,6.00,6,0.100,13385.000,0.200,3125.000,0.300,225.000,0.500,45.000,1.000,6.000,5.000,0
"03/08/08","17:07:50",17056.000,"cc",28277.387,6.00,6,0.100,13521.000,0.200,3280.000,0.300,217.000,0.500,36.000,1.000,2.000,5.000,0
"03/08/08","17:07:56",16544.000,"cc",28310.912,6.00,6,0.100,13308.000,0.200,3032.000,0.300,173.000,0.500,30.000,1.000,1.000,5.000,0
"03/08/08","17:08:02",16941.000,"cc",28339.285,6.00,6,0.100,13404.000,0.200,3310.000,0.300,182.000,0.500,40.000,1.000,5.000,5.000,0
"03/08/08","17:08:08",16824.000,"cc",28282.690,6.00,6,0.100,13293.000,0.200,3284.000,0.300,197.000,0.500,49.000,1.000,1.000,5.000,0
"03/08/08","17:08:14",16635.000,"cc",28332.467,6.00,6,0.100,13222.000,0.200,3214.000,0.300,166.000,0.500,32.000,1.000,1.000,5.000,0
"03/08/08","17:08:20",16786.000,"cc",28281.059,6.00,6,0.100,13399.000,0.200,3172.000,0.300,178.000,0.500,34.000,1.000,3.000,5.000,0
"03/08/08","17:08:26",16505.000,"cc",28286.869,6.00,6,0.100,13223.000,0.200,3052.000,0.300,198.000,0.500,30.000,1.000,2.000,5.000,0
"03/08/08","17:08:32",16968.000,"cc",28373.397,6.00,6,0.100,13490.000,0.200,3231.000,0.300,206.000,0.500,39.000,1.000,2.000,5.000,0
"03/08/08","17:08:38",16633.000,"cc",28313.229,6.00,6,0.100,13250.000,0.200,3140.000,0.300,201.000,0.500,41.000,1.000,1.000,5.000,0
"03/08/08","17:08:44",17192.000,"cc",28352.670,6.00,6,0.100,13649.000,0.200,3318.000,0.300,202.000,0.500,23.000,1.000,0,5.000,0
"03/08/08","17:08:50",16869.000,"cc",28261.607,6.00,6,0.100,13399.000,0.200,3182.000,0.300,226.000,0.500,60.000,1.000,2.000,5.000,0
"03/08/08","17:08:56",16844.000,"cc",28341.412,6.00,6,0.100,13450.000,0.200,3181.000,0.300,175.000,0.500,36.000,1.000,2.000,5.000,0
"03/08/08","17:09:02",16843.000,"cc",28296.695,6.00,6,0.100,13298.000,0.200,3259.000,0.300,219.000,0.500,57.000,1.000,10.000,5.000,0
"03/08/08","17:09:08",17030.000,"cc",28401.650,6.00,6,0.100,13633.000,0.200,3171.000,0.300,183.000,0.500,41.000,1.000,2.000,5.000,0
"03/08/08","17:09:14",16926.000,"cc",28329.092,6.00,6,0.100,13487.000,0.200,3178.000,0.300,207.000,0.500,51.000,1.000,3.000,5.000,0
"03/08/08","17:09:20",16707.000,"cc",28287.283,6.00,6,0.100,13239.000,0.200,3198.000,0.300,206.000,0.500,55.000,1.000,9.000,5.000,0
"03/08/08","17:09:26",17119.000,"cc",28268.602,6.00,6,0.100,13595.000,0.200,3272.000,0.300,198.000,0.500,52.000,1.000,2.000,5.000,0
"03/08/08","17:09:32",16866.000,"cc",28316.170,6.00,6,0.100,13506.000,0.200,3150.000,0.300,167.000,0.500,39.000,1.000,4.000,5.000,0
"03/08/08","17:09:38",17090.000,"cc",28360.504,6.00,6,0.100,13493.000,0.200,3378.000,0.300,184.000,0.500,33.000,1.000,2.000,5.000,0
"03/08/08","17:09:44",16645.000,"cc",28233.344,6.00,6,0.100,13322.000,0.200,3063.000,0.300,209.000,0.500,48.000,1.000,3.000,5.000,0
"03/08/08","17:09:50",16872.000,"cc",28347.787,6.00,6,0.100,13484.000,0.200,3144.000,0.300,207.000,0.500,34.000,1.000,3.000,5.000,0
"03/08/08","17:09:56",17089.000,"cc",28309.420,6.00,6,0.100,13576.000,0.200,3269.000,0.300,202.000,0.500,40.000,1.000,2.000,5.000,0
"03/08/08","17:10:02",17126.000,"cc",28343.424,6.00,6,0.100,13565.000,0.200,3315.000,0.300,202.000,0.500,40.000,1.000,4.000,5.000,0
"03/08/08","17:10:08",16573.000,"cc",28340.426,6.00,6,0.100,13194.000,0.200,3158.000,0.300,184.000,0.500,33.000,1.000,4.000,5.000,0
"03/08/08","17:10:14",16819.000,"cc",28299.174,6.00,6,0.100,13360.000,0.200,3180.000,0.300,223.000,0.500,49.000,1.000,7.000,5.000,0
"03/08/08","17:10:20",16749.000,"cc",28276.178,6.00,6,0.100,13375.000,0.200,3170.000,0.300,171.000,0.500,30.000,1.000,3.000,5.000,0
"03/08/08","17:10:26",17010.000,"cc",28276.357,6.00,6,0.100,13510.000,0.200,3265.000,0.300,195.000,0.500,39.000,1.000,1.000,5.000,0
"03/08/08","17:10:32",16364.000,"cc",28351.820,6.00,6,0.100,13280.000,0.200,2939.000,0.300,128.000,0.500,16.000,1.000,1.000,5.000,0
"03/08/08","17:10:38",16662.000,"cc",28308.549,6.00,6,0.100,13355.000,0.200,3053.000,0.300,202.000,0.500,47.000,1.000,5.000,5.000,0
"03/08/08","17:10:44",17235.000,"cc",28335.809,6.00,6,0.100,13589.000,0.200,3366.000,0.300,218.000,0.500,61.000,1.000,1.000,5.000,0
"03/08/08","17:10:50",16934.000,"cc",28369.447,6.00,6,0.100,13599.000,0.200,3105.000,0.300,186.000,0.500,43.000,1.000,1.000,5.000,0
"03/08/08","17:10:56",17065.000,"cc",28268.969,6.00,6,0.100,13594.000,0.200,3199.000,0.300,222.000,0.500,46.000,1.000,4.000,5.000,0
"03/08/08","17:11:02",16933.000,"cc",28352.527,6.00,6,0.100,13597.000,0.200,3151.000,0.300,167.000,0.500,18.000,1.000,0,5.000,0
"03/08/08","17:11:08",16664.000,"cc",28306.793,6.00,6,0.100,13337.000,0.200,3110.000,0.300,175.000,0.500,40.000,1.000,2.000,5.000,0
"03/08/08","17:11:14",16762.000,"cc",28316.576,6.00,6,0.100,13258.000,0.200,3214.000,0.300,219.000,0.500,63.000,1.000,8.000,5.000,0
"03/08/08","17:11:20",16922.000,"cc",28333.844,6.00,6,0.100,13402.000,0.200,3273.000,0.300,200.000,0.500,46.000,1.000,1.000,5.000,0
"03/08/08","17:11:26",16966.000,"cc",28272.783,6.00,6,0.100,13522.000,0.200,3232.000,0.300,166.000,0.500,44.000,1.000,2.000,5.000,0
"03/08/08","17:11:32",16777.000,"cc",28348.266,6.00,6,0.100,13499.000,0.200,3079.000,0.300,168.000,0.500,31.000,1.000,0,5.000,0
"03/08/08","17:11:38",16829.000,"cc",28308.213,6.00,6,0.100,13475.000,0.200,3163.000,0.300,166.000,0.500,24.000,1.000,1.000,5.000,0
"03/08/08","17:11:44",16581.000,"cc",28342.578,6.00,6,0.100,13254.000,0.200,3139.000,0.300,151.000,0.500,35.000,1.000,2.000,5.000,0
"03/08/08","17:11:50",16946.000,"cc",28228.940,6.00,6,0.100,13415.000,0.200,3293.000,0.300,199.000,0.500,37.000,1.000,2.000,5.000,0
"03/08/08","17:11:56",16933.000,"cc",28357.576,6.00,6,0.100,13545.000,0.200,3185.000,0.300,168.000,0.500,33.000,1.000,2.000,5.000,0
"03/08/08","17:12:02",16456.000,"cc",28393.473,6.00,6,0.100,13195.000,0.200,3108.000,0.300,127.000,0.500,25.000,1.000,1.000,5.000,0
"03/08/08","17:12:08",16742.000,"cc",28302.348,6.00,6,0.100,13320.000,0.200,3238.000,0.300,157.000,0.500,26.000,1.000,1.000,5.000,0
"03/08/08","17:12:14",16879.000,"cc",28288.529,6.00,6,0.100,13435.000,0.200,3219.000,0.300,187.000,0.500,36.000,1.000,2.000,5.000,0
"03/08/08","17:12:20",16682.000,"cc",28368.828,6.00,6,0.100,13259.000,0.200,3211.000,0.300,178.000,0.500,31.000,1.000,3.000,5.000,0
"03/08/08","17:12:26",17188.000,"cc",28321.822,6.00,6,0.100,13653.000,0.200,3313.000,0.300,171.000,0.500,47.000,1.000,4.000,5.000,0
"03/08/08","17:12:32",16661.000,"cc",28326.508,6.00,6,0.100,13264.000,0.200,3191.000,0.300,170.000,0.500,35.000,1.000,1.000,5.000,0
"03/08/08","17:12:38",17077.000,"cc",28234.051,6.00,6,0.100,13511.000,0.200,3325.000,0.300,205.000,0.500,34.000,1.000,2.000,5.000,0
"03/08/08","17:12:44",17163.000,"cc",28305.184,6.00,6,0.100,13605.000,0.200,3319.000,0.300,181.000,0.500,52.000,1.000,6.000,5.000,0
"03/08/08","17:12:50",16835.000,"cc",28331.893,6.00,6,0.100,13405.000,0.200,3203.000,0.300,194.000,0.500,32.000,1.000,1.000,5.000,0
"03/08/08","17:12:56",17167.000,"cc",28269.512,6.00,6,0.100,13472.000,0.200,3436.000,0.300,212.000,0.500,39.000,1.000,8.000,5.000,0
"03/08/08","17:13:02",17086.000,"cc",28328.066,6.00,6,0.100,13503.000,0.200,3342.000,0.300,197.000,0.500,43.000,1.000,1.000,5.000,0
"03/08/08","17:13:08",16812.000,"cc",28323.379,6.00,6,0.100,13316.000,0.200,3243.000,0.300,206.000,0.500,41.000,1.000,6.000,5.000,0
"03/08/08","17:13:14",17168.000,"cc",28332.695,6.00,6,0.100,13579.000,0.200,3347.000,0.300,199.000,0.500,41.000,1.000,2.000,5.000,0
"03/08/08","17:13:20",16937.000,"cc",28333.904,6.00,6,0.100,13428.000,0.200,3316.000,0.300,158.000,0.500,35.000,1.000,0,5.000,0
"03/08/08","17:13:26",17085.000,"cc",28312.869,6.00,6,0.100,13524.000,0.200,3318.000,0.300,205.000,0.500,37.000,1.000,1.000,5.000,0
"03/08/08","17:13:32",16795.000,"cc",28343.965,6.00,6,0.100,13185.000,0.200,3374.000,0.300,195.000,0.500,36.000,1.000,5.000,5.000,0
"03/08/08","17:13:38",17250.000,"cc",28324.525,6.00,6,0.100,13652.000,0.200,3356.000,0.300,198.000,0.500,41.000,1.000,3.000,5.000,0
"03/08/08","17:13:44",16885.000,"cc",28345.789,6.00,6,0.100,13437.000,0.200,3209.000,0.300,188.000,0.500,48.000,1.000,3.000,5.000,0
"03/08/08","17:13:50",17211.000,"cc",28276.490,6.00,6,0.100,13586.000,0.200,3337.000,0.300,232.000,0.500,55.000,1.000,1.000,5.000,0
"03/08/08","17:13:56",16964.000,"cc",28345.072,6.00,6,0.100,13485.000,0.200,3285.000,0.300,164.000,0.500,29.000,1.000,1.000,5.000,0
"03/08/08","17:14:02",17058.000,"cc",28276.559,6.00,6,0.100,13403.000,0.200,3336.000,0.300,236.000,0.500,77.000,1.000,6.000,5.000,0
"03/08/08","17:14:08",17072.000,"cc",28300.000,6.00,6,0.100,13468.000,0.200,3337.000,0.300,195.000,0.500,61.000,1.000,11.000,5.000,0
"03/08/08","17:14:14",17105.000,"cc",28302.402,6.00,6,0.100,13583.000,0.200,3258.000,0.300,202.000,0.500,59.000,1.000,3.000,5.000,0
"03/08/08","17:14:20",17098.000,"cc",28332.857,6.00,6,0.100,13653.000,0.200,3263.000,0.300,157.000,0.500,24.000,1.000,1.000,5.000,0
"03/08/08","17:14:26",17051.000,"cc",28341.590,6.00,6,0.100,13411.000,0.200,3398.000,0.300,211.000,0.500,30.000,1.000,1.000,5.000,0
"03/08/08","17:14:32",17311.000,"cc",28328.473,6.00,6,0.100,13655.000,0.200,3406.000,0.300,206.000,0.500,42.000,1.000,2.000,5.000,0
"03/08/08","17:14:38",17172.000,"cc",28261.352,6.00,6,0.100,13448.000,0.200,3428.000,0.300,225.000,0.500,68.000,1.000,3.000,5.000,0
"03/08/08","17:14:44",17261.000,"cc",28288.428,6.00,6,0.100,13656.000,0.200,3323.000,0.300,213.000,0.500,67.000,1.000,2.000,5.000,0
"03/08/08","17:14:50",17226.000,"cc",28390.799,6.00,6,0.100,13584.000,0.200,3418.000,0.300,190.000,0.500,32.000,1.000,2.000,5.000,0
"03/08/08","17:14:56",17153.000,"cc",28376.772,6.00,6,0.100,13620.000,0.200,3295.000,0.300,190.000,0.500,45.000,1.000,3.000,5.000,0
"03/08/08","17:15:02",16885.000,"cc",28295.000,6.00,6,0.100,13439.000,0.200,3226.000,0.300,167.000,0.500,51.000,1.000,2.000,5.000,0
"03/08/08","17:15:08",17355.000,"cc",28255.486,6.00,6,0.100,13642.000,0.200,3402.000,0.300,230.000,0.500,74.000,1.000,7.000,5.000,0
"03/08/08","17:15:14",16993.000,"cc",28325.387,6.00,6,0.100,13435.000,0.200,3338.000,0.300,177.000,0.500,40.000,1.000,3.000,5.000,0
"03/08/08","17:15:20",17031.000,"cc",28307.559,6.00,6,0.100,13486.000,0.200,3336.000,0.300,179.000,0.500,28.000,1.000,2.000,5.000,0
"03/08/08","17:15:26",16897.000,"cc",28360.580,6.00,6,0.100,13433.000,0.200,3256.000,0.300,171.000,0.500,34.000,1.000,3.000,5.000,0
"03/08/08","17:15:32",17008.000,"cc",28321.426,6.00,6,0.100,13507.000,0.200,3286.000,0.300,175.000,0.500,36.000,1.000,4.000,5.000,0
"03/08/08","17:15:38",16997.000,"cc",28310.535,6.00,6,0.100,13514.000,0.200,3237.000,0.300,188.000,0.500,55.000,1.000,3.000,5.000,0
"03/08/08","17:15:44",16815.000,"cc",28364.684,6.00,6,0.100,13383.000,0.200,3228.000,0.300,164.000,0.500,38.000,1.000,2.000,5.000,0
"03/08/08","17:15:50",16858.000,"cc",28231.908,6.00,6,0.100,13383.000,0.200,3278.000,0.300,158.000,0.500,38.000,1.000,1.000,5.000,0
"03/08/08","17:15:56",17034.000,"cc",28283.799,6.00,6,0.100,13539.000,0.200,3309.000,0.300,152.000,0.500,32.000,1.000,2.000,5.000,0
"03/08/08","17:16:02",17078.000,"cc",28355.580,6.00,6,0.100,13561.000,0.200,3288.000,0.300,183.000,0.500,44.000,1.000,2.000,5.000,0
"03/08/08","17:16:08",16973.000,"cc",28364.334,6.00,6,0.100,13356.000,0.200,3382.000,0.300,178.000,0.500,48.000,1.000,9.000,5.000,0
"03/08/08","17:16:14",16952.000,"cc",28286.889,6.00,6,0.100,13455.000,0.200,3256.000,0.300,189.000,0.500,51.000,1.000,1.000,5.000,0
"03/08/08","17:16:20",17300.000,"cc",28286.607,6.00,6,0.100,13639.000,0.200,3395.000,0.300,197.000,0.500,65.000,1.000,4.000,5.000,0
"03/08/08","17:16:26",17028.000,"cc",28377.797,6.00,6,0.100,13454.000,0.200,3266.000,0.300,235.000,0.500,62.000,1.000,11.000,5.000,0
"03/08/08","17:16:32",17301.000,"cc",28362.813,6.00,6,0.100,13745.000,0.200,3291.000,0.300,204.000,0.500,59.000,1.000,2.000,5.000,0
"03/08/08","17:16:38",17354.000,"cc",28308.231,6.00,6,0.100,13677.000,0.200,3383.000,0.300,216.000,0.500,69.000,1.000,9.000,5.000,0
"03/08/08","17:16:44",17086.000,"cc",28321.930,6.00,6,0.100,13455.000,0.200,3376.000,0.300,187.000,0.500,61.000,1.000,7.000,5.000,0
"03/08/08","17:16:50",17122.000,"cc",28273.846,6.00,6,0.100,13485.000,0.200,3386.000,0.300,188.000,0.500,57.000,1.000,6.000,5.000,0
"03/08/08","17:16:56",17364.000,"cc",28282.117,6.00,6,0.100,13558.000,0.200,3500.000,0.300,235.000,0.500,67.000,1.000,4.000,5.000,0
"03/08/08","17:17:02",17234.000,"cc",28308.609,6.00,6,0.100,13561.000,0.200,3416.000,0.300,208.000,0.500,48.000,1.000,1.000,5.000,0